Theta_e
308 308 308 308 308 306 300 293 280 295 302 289 287 282 286 291 288 290 288 288 286 284 286 285 284 284 287 292 291 286 291 285 284 288 292 296 294 291 289 286 283 287 286 287
308 308 308 308 308 306 298 289 288 294 299 282 282 286 285 288 287 287 286 285 286 287 285 282 286 287 292 292 290 288 290 284 281 284 288 291 290 292 293 288 287 286 285 287
307 307 308 308 307 306 293 288 281 285 289 290 286 283 282 283 289 288 288 286 286 285 285 287 286 286 290 293 292 298 291 284 284 283 285 289 287 291 292 289 284 286 290 290
305 307 308 308 307 305 292 285 282 286 282 280 285 285 282 282 283 288 288 285 286 285 283 284 285 288 290 291 294 293 287 281 286 287 291 291 291 291 291 289 291 287 289 291
305 305 307 307 307 303 290 285 287 287 287 288 285 283 280 282 284 286 285 284 286 285 283 285 283 287 288 287 291 289 287 281 285 285 291 293 290 291 292 292 292 292 292 292
305 305 306 307 307 302 295 296 296 291 287 285 283 283 284 284 287 287 289 287 285 283 286 290 290 291 292 292 289 288 285 284 282 279 286 289 285 291 291 292 293 293 290 296
304 305 306 307 307 306 300 297 295 289 283 286 285 286 287 285 286 285 288 288 284 288 292 292 291 291 291 293 292 292 287 286 285 279 285 279 290 297 295 294 296 296 295 297
304 305 306 306 307 307 300 299 296 291 283 287 287 287 287 287 288 287 286 288 290 289 288 284 282 285 287 289 291 293 293 290 283 279 280 287 293 294 292 292 293 295 297 301
305 306 306 306 307 307 300 299 299 295 287 284 290 287 289 286 286 287 286 289 291 289 285 283 274 279 284 283 287 292 292 290 285 282 279 280 289 294 299 300 289 295 296 296
305 306 307 307 308 308 301 297 296 296 289 290 289 287 287 290 289 287 285 287 288 288 281 272 274 279 287 280 281 283 285 286 280 281 278 289 294 296 299 288 287 296 296 296
304 305 307 307 308 309 303 299 295 297 291 290 292 292 289 291 291 287 289 286 287 286 281 283 284 285 286 284 287 286 285 283 286 286 285 285 297 295 289 293 296 297 297 297
304 305 306 307 308 309 305 296 296 301 294 292 294 296 297 294 294 292 292 286 289 291 287 287 287 285 286 286 282 291 285 288 286 289 288 296 298 297 300 300 296 297 297 299
305 305 307 307 308 308 306 299 300 298 293 290 287 289 293 297 297 299 291 287 291 291 295 291 290 284 288 281 284 287 290 293 289 289 292 293 296 300 300 299 297 299 300 300
305 306 306 307 306 306 306 299 298 297 294 288 287 296 294 299 300 298 297 294 294 292 294 291 289 287 292 286 289 287 288 291 289 289 293 294 297 298 299 300 299 300 301 302
305 306 306 306 306 306 302 296 299 297 293 287 287 293 297 299 299 298 298 296 294 292 290 285 285 290 291 292 289 287 291 289 288 287 294 293 294 298 300 299 299 299 300 301
305 305 306 306 306 306 294 289 295 301 300 293 285 291 295 297 301 299 299 296 294 295 293 290 289 292 290 286 284 292 294 296 295 293 298 298 298 300 301 300 299 300 301 302
304 305 305 306 306 299 291 290 298 302 300 292 287 285 295 296 299 298 296 296 292 292 293 289 286 287 289 285 283 291 293 294 296 299 299 296 298 297 300 299 301 303 302 304
304 304 306 307 306 304 295 297 304 302 296 293 286 285 289 296 292 293 293 289 290 291 291 288 285 287 286 281 290 292 293 294 295 297 299 299 301 300 299 300 301 300 300 303
303 305 307 300 294 292 294 307 304 296 293 283 288 286 284 293 294 294 293 287 283 289 286 288 288 282 282 289 290 291 292 292 293 296 296 299 299 299 301 301 299 299 301 302
303 299 295 287 295 305 305 296 291 291 293 294 290 293 287 292 293 290 288 288 285 283 288 292 288 286 292 293 294 295 295 296 295 292 292 294 294 296 298 300 299 299 300 302
292 291 290 295 302 294 288 284 284 284 283 289 292 291 286 296 289 288 288 285 286 281 285 287 285 285 288 295 296 298 298 297 297 297 296 296 296 296 296 298 302 301 301 302
291 294 297 299 291 286 285 279 283 284 282 287 287 288 289 293 292 286 285 283 283 280 288 286 285 289 294 296 297 298 298 298 298 299 298 297 297 298 297 297 299 302 303 303
300 297 294 286 285 278 281 280 280 280 287 288 287 285 287 289 288 285 281 275 280 282 276 282 287 292 293 294 295 295 298 300 300 300 301 300 300 300 299 298 299 300 302 304
292 287 279 282 281 282 282 284 285 288 287 288 287 285 283 285 282 287 278 280 276 269 270 275 286 292 292 293 294 294 295 299 300 300 301 301 300 300 300 300 300 300 301 302
290 284 278 281 287 288 288 289 288 289 289 287 284 285 285 279 280 282 276 275 269 270 274 280 287 291 291 291 292 293 295 298 299 301 300 301 301 301 301 302 301 301 301 302
292 286 284 286 286 286 288 288 288 290 288 287 285 281 280 279 277 274 271 274 268 276 281 286 288 290 290 291 292 294 296 297 300 299 301 301 301 301 302 304 302 301 301 301
289 285 289 287 286 287 287 289 289 290 288 283 283 281 280 282 275 271 282 276 279 283 287 288 289 289 290 292 293 295 296 297 297 299 301 301 302 302 301 301 302 302 301 302
Wind_Speed
21 21 21 21 20 18 6 2 3 4 3 2 1 3 3 8 7 6 6 5 9 8 9 5 2 5 8 22 19 12 3 2 4 11 8 20 22 16 9 8 5 4 4 8
21 21 20 21 21 11 4 4 4 4 0 2 2 4 5 4 5 5 4 5 4 6 7 7 5 3 2 9 17 16 9 5 2 5 3 2 22 19 16 6 4 14 8 7
21 21 20 19 18 11 3 3 5 4 4 1 3 6 7 4 6 9 4 5 6 5 6 8 5 8 2 5 13 16 8 4 5 10 6 6 5 15 19 12 5 3 12 1
21 20 20 20 17 10 4 3 2 0 4 4 8 5 3 5 5 4 6 4 2 3 4 7 2 7 5 4 8 10 2 4 5 11 13 7 6 13 19 18 21 14 5 8
21 20 20 20 17 7 4 2 2 4 5 7 8 4 3 3 5 4 5 3 11 6 4 5 8 9 5 0 1 5 3 5 6 5 7 16 13 10 16 23 21 18 3 11
20 19 19 18 17 4 1 1 2 2 5 4 3 2 4 9 12 9 7 9 13 10 12 3 10 9 8 5 3 2 3 4 7 5 7 4 10 18 11 9 12 18 13 24
20 19 20 18 16 5 2 2 2 3 5 4 4 10 14 14 12 10 15 13 7 7 8 13 11 11 11 11 11 8 4 5 2 5 5 6 3 12 9 14 8 8 8 5
21 19 19 19 17 12 2 2 2 2 5 6 12 9 11 13 11 11 9 10 6 4 5 4 5 1 4 11 10 3 8 2 3 2 3 4 7 12 10 5 4 10 10 12
22 20 19 18 16 13 2 3 3 3 3 4 4 12 10 6 5 6 5 6 5 2 1 2 3 2 1 3 4 3 8 11 6 0 2 4 8 16 7 3 4 13 12 12
23 22 20 18 16 14 1 2 4 3 3 4 4 5 5 4 4 4 5 7 6 3 3 1 2 4 1 3 3 2 2 1 4 2 2 1 14 18 1 7 6 14 11 11
24 21 20 18 17 12 2 3 5 2 4 9 7 4 6 6 4 4 4 4 2 3 6 3 3 3 1 1 1 1 2 2 0 3 2 3 16 5 9 5 6 8 11 8
24 21 20 18 16 12 1 2 2 3 4 8 5 12 17 13 17 4 2 3 3 1 2 2 4 2 4 3 1 3 2 3 2 5 3 7 10 1 1 4 8 9 9 14
23 21 19 17 14 11 4 3 1 0 4 6 4 5 2 2 9 9 3 3 3 1 2 3 3 2 2 2 1 2 1 1 0 4 6 13 16 5 6 10 10 13 12 13
24 21 18 15 12 9 6 2 1 1 3 4 7 3 8 3 3 8 10 1 2 2 1 1 2 3 1 2 1 2 1 3 3 2 7 13 6 10 14 17 14 13 14 13
24 23 20 15 11 10 3 2 4 4 1 3 7 9 5 5 2 5 6 9 4 1 2 2 2 0 3 2 2 1 4 4 1 1 2 6 12 14 18 16 13 14 13 17
25 26 23 17 10 3 2 4 2 5 4 3 4 4 6 6 3 5 6 4 3 2 2 3 2 2 3 0 1 8 12 4 4 3 4 9 19 15 15 11 15 14 12 14
28 24 24 17 9 3 3 4 2 7 3 2 5 5 5 4 3 1 2 2 1 1 1 2 1 3 1 1 2 10 11 11 10 5 6 8 11 11 18 17 14 12 11 11
29 26 18 3 10 3 3 2 10 5 1 2 3 6 5 4 4 2 3 2 1 1 2 2 1 4 2 2 5 9 11 12 12 11 11 7 13 16 16 16 10 12 11 10
30 21 6 2 2 1 2 5 10 1 3 1 1 4 4 5 3 1 2 2 3 1 2 2 3 3 3 6 10 12 11 9 13 14 14 12 11 13 13 16 15 14 11 10
20 4 2 3 2 10 5 1 1 2 1 2 4 2 4 1 2 2 3 3 2 3 2 4 1 0 1 7 9 8 9 8 9 10 10 11 14 14 16 15 15 13 12 10
6 5 3 4 11 1 3 0 2 1 3 3 4 4 3 1 1 2 1 1 2 2 2 3 1 1 4 9 9 8 8 9 11 11 12 11 10 12 15 15 14 14 12 12
5 7 7 3 3 3 1 1 3 2 4 3 2 3 2 1 1 1 1 1 2 1 4 2 2 4 8 9 9 8 6 8 10 11 13 15 12 11 11 12 13 14 12 13
2 3 3 2 2 4 3 2 4 2 3 4 3 4 0 2 3 2 3 4 2 3 4 1 3 7 9 9 7 8 8 8 9 11 12 14 16 14 12 12 12 14 13 14
2 2 6 4 3 5 5 5 5 6 4 4 1 2 2 1 3 1 2 3 4 4 5 4 4 7 11 11 8 6 10 10 11 12 12 13 15 14 13 12 12 10 13 15
4 3 5 6 5 3 3 3 2 4 3 2 1 1 2 2 3 1 2 5 2 4 5 4 5 6 7 8 7 9 10 9 9 10 12 12 13 15 15 13 11 11 10 13
3 4 2 2 1 4 2 3 4 2 2 2 3 2 3 1 3 3 3 3 5 6 5 6 4 6 6 6 6 6 7 8 10 9 11 13 13 14 15 12 10 11 10 13
5 5 4 4 2 5 4 4 4 3 3 2 2 1 6 2 2 2 5 6 6 6 5 3 5 7 8 7 7 6 7 10 9 11 10 12 14 13 12 11 9 9 10 12
Wind_Direction
339 340 342 341 342 339 19 357 17 291 337 31 10 296 290 311 293 300 265 263 252 255 313 309 244 246 318 346 343 343 312 313 234 214 166 194 199 193 158 187 196 207 162 267
340 339 339 341 345 2 327 346 299 303 359 42 329 294 285 264 292 279 312 301 289 309 293 304 224 265 38 328 325 345 342 296 185 4 309 172 201 207 208 115 107 206 207 254
339 339 338 339 346 353 76 8 340 325 26 172 291 324 297 293 277 283 268 260 280 315 309 313 291 266 242 357 326 329 354 278 271 217 208 141 148 203 208 198 200 206 223 272
340 338 337 338 342 350 84 27 299 293 315 315 311 302 294 291 315 315 299 297 7 332 310 312 2 3 317 31 2 335 8 277 310 301 289 282 171 180 200 203 214 211 222 241
338 339 334 337 340 9 70 24 337 324 282 284 318 324 271 320 332 293 303 276 309 309 282 268 285 325 8 149 84 317 297 283 342 284 261 274 266 254 215 199 208 230 243 253
338 336 331 327 337 42 322 292 275 265 273 295 288 259 301 306 310 274 231 304 313 304 286 295 287 263 249 220 282 340 287 338 352 302 339 242 258 235 228 208 226 206 195 235
337 335 328 325 326 338 194 243 269 270 289 262 275 289 293 283 282 281 288 286 258 251 335 321 275 240 229 203 224 211 220 300 263 267 302 168 265 26 218 203 51 351 272 325
332 332 325 325 322 330 186 194 240 265 279 278 285 294 293 305 299 280 264 277 236 330 299 273 300 135 158 220 220 205 204 207 247 183 260 265 21 22 352 14 75 8 343 341
331 330 325 322 318 327 148 205 208 269 290 255 318 308 297 295 309 317 275 303 309 25 230 240 216 288 1 148 153 357 305 211 199 85 208 172 356 320 292 149 179 356 346 334
330 330 329 326 320 312 202 259 205 252 275 271 194 280 306 279 289 285 293 329 337 16 342 18 185 227 275 153 172 223 52 39 178 227 240 30 346 324 191 148 287 317 323 318
332 330 328 324 316 311 164 242 192 222 255 277 234 232 222 268 268 296 323 339 332 341 15 326 335 273 79 331 58 35 117 313 161 183 223 127 355 3 63 274 284 286 314 308
331 330 325 319 315 315 155 253 203 178 247 261 240 245 246 219 244 264 254 251 260 242 309 328 290 12 2 332 155 7 90 39 327 5 25 331 342 339 292 286 273 306 305 316
327 326 322 317 314 316 224 222 183 232 270 286 331 249 289 157 218 198 216 250 212 237 209 310 304 337 243 357 36 310 121 238 215 326 332 317 306 286 350 339 319 307 311 315
327 326 323 317 313 309 302 241 165 164 264 297 287 315 311 246 169 187 212 290 61 65 295 279 299 286 87 230 346 320 209 214 215 255 305 323 59 340 333 326 322 319 320 323
326 326 324 317 308 291 276 209 225 200 145 282 291 320 323 351 85 238 211 234 241 252 293 266 255 259 318 284 123 243 197 205 23 64 286 279 283 318 319 324 315 321 321 322
325 325 320 310 289 268 53 341 230 196 192 282 308 250 278 304 240 310 262 208 202 206 210 263 290 241 191 16 314 21 5 347 161 236 236 241 284 299 305 313 315 312 315 308
323 323 319 300 237 141 162 191 249 160 150 275 302 303 271 315 294 345 345 59 140 263 225 238 255 283 134 332 10 336 341 338 334 283 304 294 297 312 311 316 306 306 294 294
321 323 324 315 154 198 317 271 187 140 119 57 283 276 320 24 299 13 353 358 6 150 316 2 305 344 19 43 336 341 325 317 311 344 323 266 297 315 316 320 310 314 315 319
322 321 136 92 64 113 227 101 111 138 145 200 287 294 296 352 281 26 348 23 10 279 3 13 17 349 44 333 331 329 326 310 303 314 317 312 319 323 328 326 321 321 314 316
323 31 31 330 258 315 78 50 45 18 289 189 247 217 261 218 277 49 353 26 12 354 11 306 32 85 342 275 268 275 297 314 298 300 303 325 319 327 321 316 307 305 304 300
5 0 321 302 307 65 40 69 94 300 283 223 244 225 271 294 356 345 39 354 336 325 337 333 10 310 272 275 287 295 278 275 268 269 272 277 280 281 292 303 308 305 303 300
263 284 290 277 333 24 92 289 319 204 241 269 218 270 215 18 67 108 316 60 3 324 319 322 39 282 281 298 303 306 299 273 273 266 267 275 275 278 281 285 290 298 304 299
254 207 255 59 288 28 165 215 300 295 248 256 338 322 122 11 57 26 63 57 259 3 36 0 235 270 309 322 316 312 309 306 297 298 290 287 287 283 278 282 280 283 293 297
233 208 297 176 246 241 189 189 203 231 221 268 238 254 113 40 56 350 4 251 62 43 28 267 263 307 312 314 314 326 315 317 313 320 310 290 287 284 275 268 270 279 283 289
226 121 242 228 240 250 213 224 295 241 228 146 46 54 100 12 79 63 52 17 340 187 219 237 254 290 293 296 313 320 316 317 310 304 314 321 309 305 289 268 258 261 264 280
227 230 259 224 337 276 204 192 255 222 147 83 60 108 60 313 138 63 199 114 225 251 226 238 282 288 285 272 281 278 283 294 300 313 320 325 326 320 307 282 267 260 258 262
224 251 211 173 221 227 235 187 232 154 99 224 116 83 218 105 52 286 188 203 220 226 258 256 243 259 273 274 284 292 302 312 320 315 315 323 316 324 326 331 278 253 256 262